Location: Beutels
(47.8767°N, 9.8584°E)
Time: 01:06:42
(UTC+00:00)

Cosmos 2173 Rocket - Pass Details

Date: 19 May 2025
Orbit: 944 x 999 km, 83.0° (Epoch: 15 June)

Event Time Altitude Azimuth Distance (km) Brightness Sun altitude
Rises 23:10:10 0° 353° (N) 3,730 8.6 -22.1°
Reaches altitude 10° 23:12:47 10° 358° (N) 2,773 7.5 -22.1°
Maximum altitude 23:19:03 58° 77° (ENE) 1,147 4.4 -22.1°
Enters shadow 23:21:47 33° 140° (SE) 1,584 4.7 -22.1°
